Weather in Gor'kovka

Russia / Tyumen Oblast     57°08′22″N   65°15′36″E
temp.,
°C
wind,
m/s
gust,
m/s
humid.,
%
clouds,
%
prec.,
mm/h
press.,
hPa
HPBL,
m
17 june, thu
thu1723:00+18sw337893 0.3 101137
02:00+17sw23807 0.1 100929
05:00+16sw4108259 0.3 1008189
08:00+20s346794 0.0 100682
11:00+28wsw7124156 0.0 10051554
14:00+30wsw7113854 0.0 10032651
17:00+19wsw151884100 3.8 10031051
20:00+18wnw4109176 5.3 1003318
18 june, fri
fri1823:00+16n41094100 6.8 1005450
02:00+13nne71484100 0.0 1006593
05:00+11n6137368 0.0 1009762
08:00+12n8125625 0.0 10111100
11:00+15n811405 0.0 10121712
14:00+18n811325 0.0 10132351
17:00+18n7103512 0.0 10133047
20:00+15nw37505 0.0 1014140
19 june, sat
sat1923:00+13nnw41049100 0.0 1015217
02:00+9nw510685 0.0 1016190
05:00+8nw37740 0.0 1017135
08:00+15nw47492 0.0 1017411
11:00+19nw57357 0.0 10162460
14:00+16wnw796234 0.0 1014718
17:00+17nw665990 0.3 10131355
20:00+16wnw3569100 0.0 1012149
20 june, sun
sun2023:00+12w338699 0.0 101142
02:00+14wsw2482100 0.0 100993
05:00+13w369082 0.1 1008184
08:00+15wnw499299 0.3 1007541
11:00+19nnw7106933 1.1 10061277
14:00+22n10135158 1.0 10052071
17:00+20nnw10154711 1.1 10072273
20:00+16nne712515 0.0 1009813
21 june, mon
mon2123:00+13nnw512492 0.0 1010482
02:00+12nnw81553100 0.0 10111233
05:00+11nnw7136052 0.0 1012997
08:00+11nw7136347 0.0 1013682
11:00+18nnw8124917 0.0 10131685
14:00+19n91346100 0.1 10132445
17:00+15nne61064100 0.4 1014930
20:00+14nne51058100 0.0 1015941